Check out our new BloomSky Weather System.

Active alerts

Houston, TX
  Details for Houston, TX Special Weather Statement
Galveston, TX
  Details for Galveston, TX Special Weather Statement


Thunder radar  blitzortung!


Rain radar more information rain snow radar


Visit our other weather sites:

Template documentation
and downloads

And another site



Weather Underground History page Text

Daily Summary for January 27, 2018 Units:  Metric    English   Both
« Previous Day
Next Day »
Daily Weekly Monthly Yearly Custom
  High: Low: Average:
Temperature: -17.8 °C 14.9 °C 16.6 °C
Dew Point: -17.8 °C 14.6 °C 16.3 °C
Humidity: Humidity % 95 % 98 %
Wind Speed: 0 km/h 0 km/h 0.8 km/h
Wind Gust: 0 km/h - -
Wind:- - SSE
Pressure: 0 hPa 1019.2 hPa -
Precipitation: 13.97 mm    
Historical Graphs
 
 
Tabular Data for January 27, 2018
Time Temperature Dew Point Pressure Wind Wind Speed Wind Gust Humidity Rainfall Rate (Hourly)
-17.8 °C -17.8 °C 0 hPa Calm     Humidity % 0 mm
00:04 15.7 °C 14.9 °C 1021.6 hPa Calm   6.4 km/h 95 % 0 mm
00:09 15.7 °C 14.9 °C 1021.6 hPa ESE 3.2 km/h 6.4 km/h 95 % 0 mm
00:14 15.7 °C 15.1 °C 1021.6 hPa SE 3.2 km/h 4.8 km/h 96 % 0 mm
00:19 15.7 °C 15.1 °C 1021.6 hPa SE 3.2 km/h 4.8 km/h 96 % 0 mm
00:24 15.7 °C 15.1 °C 1021.6 hPa SE 3.2 km/h 6.4 km/h 96 % 0 mm
00:29 15.7 °C 15.1 °C 1021.6 hPa SE 1.6 km/h 6.4 km/h 96 % 0 mm
00:34 15.7 °C 15.1 °C 1021.6 hPa SE 3.2 km/h 6.4 km/h 96 % 0 mm
00:39 15.7 °C 15.1 °C 1021.6 hPa ESE 4.8 km/h 8 km/h 96 % 0 mm
00:44 15.6 °C 15 °C 1021.2 hPa SSE 1.6 km/h 8 km/h 96 % 0 mm
00:49 15.6 °C 15 °C 1021.2 hPa SE 1.6 km/h 8 km/h 96 % 0 mm
00:54 15.6 °C 15 °C 1020.9 hPa Calm   8 km/h 96 % 0 mm
00:59 15.6 °C 15 °C 1020.9 hPa Calm   4.8 km/h 96 % 0 mm
01:04 15.6 °C 15 °C 1020.9 hPa East 1.6 km/h 4.8 km/h 96 % 0 mm
01:09 15.6 °C 15.1 °C 1020.9 hPa Calm   4.8 km/h 97 % 0.25 mm
01:14 15.5 °C 15 °C 1020.9 hPa SE 1.6 km/h 4.8 km/h 97 % 0.25 mm
01:19 15.5 °C 15 °C 1021.2 hPa Calm   3.2 km/h 97 % 0.25 mm
01:24 15.5 °C 15 °C 1021.2 hPa SE 1.6 km/h 1.6 km/h 97 % 0.51 mm
01:29 15.5 °C 15 °C 1021.2 hPa Calm   1.6 km/h 97 % 0.51 mm
01:34 15.5 °C 15 °C 1020.9 hPa Calm   1.6 km/h 97 % 0.51 mm
01:39 15.5 °C 15 °C 1020.9 hPa Calm   1.6 km/h 97 % 0.76 mm
01:44 15.5 °C 15 °C 1020.9 hPa NW 1.6 km/h 1.6 km/h 97 % 1.02 mm
01:49 15.6 °C 15.1 °C 1020.9 hPa NW 1.6 km/h 3.2 km/h 97 % 2.29 mm
01:54 15.6 °C 15.1 °C 1020.5 hPa Calm   4.8 km/h 97 % 2.54 mm
01:59 15.6 °C 15.1 °C 1020.9 hPa NNW 1.6 km/h 4.8 km/h 97 % 2.54 mm
02:04 15.6 °C 15.3 °C 1020.5 hPa Calm   4.8 km/h 98 % 2.54 mm
02:09 15.6 °C 15.1 °C 1020.5 hPa Calm   4.8 km/h 97 % 2.29 mm
02:14 15.5 °C 15.2 °C 1020.5 hPa Calm   4.8 km/h 98 % 2.29 mm
02:19 15.5 °C 15.2 °C 1020.5 hPa Calm   4.8 km/h 98 % 2.29 mm
02:24 15.6 °C 15.3 °C 1020.5 hPa Calm   3.2 km/h 98 % 2.03 mm
02:29 15.6 °C 15.3 °C 1020.9 hPa Calm   1.6 km/h 98 % 2.03 mm
02:34 15.6 °C 15.3 °C 1020.9 hPa Calm   1.6 km/h 98 % 2.03 mm
02:39 15.6 °C 15.3 °C 1020.5 hPa Calm   3.2 km/h 98 % 1.78 mm
02:44 15.6 °C 15.3 °C 1020.5 hPa Calm   3.2 km/h 98 % 1.78 mm
02:49 15.6 °C 15.3 °C 1020.5 hPa Calm   3.2 km/h 98 % 0.51 mm
02:54 15.5 °C 15.2 °C 1020.5 hPa Calm   1.6 km/h 98 % 0.25 mm
02:59 15.5 °C 15.2 °C 1020.5 hPa Calm   1.6 km/h 98 % 0.25 mm
03:04 15.5 °C 15.2 °C 1020.5 hPa NNW 1.6 km/h 1.6 km/h 98 % 0.51 mm
03:09 15.5 °C 15.2 °C 1020.2 hPa Calm   3.2 km/h 98 % 0.51 mm
03:14 15.5 °C 15.2 °C 1020.5 hPa Calm   3.2 km/h 98 % 0.51 mm
03:19 15.5 °C 15.2 °C 1020.5 hPa Calm   3.2 km/h 98 % 0.76 mm
03:24 15.5 °C 15.2 °C 1020.5 hPa ENE 1.6 km/h 3.2 km/h 98 % 1.02 mm
03:29 15.4 °C 15.1 °C 1020.5 hPa Calm   1.6 km/h 98 % 1.02 mm
03:34 15.4 °C 15.1 °C 1020.2 hPa Calm   1.6 km/h 98 % 1.02 mm
03:39 15.4 °C 15.1 °C 1020.2 hPa North 1.6 km/h 1.6 km/h 98 % 1.02 mm
03:44 15.3 °C 15 °C 1020.2 hPa Calm   3.2 km/h 98 % 1.02 mm
03:49 15.3 °C 15 °C 1020.2 hPa North 1.6 km/h 3.2 km/h 98 % 1.02 mm
03:55 15.3 °C 15 °C 1020.2 hPa NW 3.2 km/h 3.2 km/h 98 % 1.27 mm
03:59 15.2 °C 14.9 °C 1020.2 hPa NNE 4.8 km/h 4.8 km/h 98 % 1.27 mm
04:04 15.2 °C 14.9 °C 1019.9 hPa Calm   4.8 km/h 98 % 1.27 mm
04:09 15.1 °C 14.8 °C 1019.9 hPa North 3.2 km/h 4.8 km/h 98 % 1.27 mm
04:15 15.1 °C 14.8 °C 1019.9 hPa North 1.6 km/h 4.8 km/h 98 % 1.27 mm
04:20 15 °C 14.7 °C 1019.9 hPa Calm   4.8 km/h 98 % 1.02 mm
04:25 15 °C 14.7 °C 1019.9 hPa Calm   4.8 km/h 98 % 0.76 mm
04:30 15 °C 14.7 °C 1019.9 hPa North 3.2 km/h 4.8 km/h 98 % 0.76 mm
04:35 15 °C 14.7 °C 1019.5 hPa Calm   6.4 km/h 98 % 0.76 mm
04:40 14.9 °C 14.6 °C 1019.5 hPa Calm   6.4 km/h 98 % 0.51 mm
04:45 14.9 °C 14.6 °C 1019.5 hPa Calm   6.4 km/h 98 % 0.51 mm
04:50 14.9 °C 14.6 °C 1019.9 hPa Calm   4.8 km/h 98 % 0.51 mm
04:55 14.9 °C 14.6 °C 1019.9 hPa Calm   4.8 km/h 98 % 0.25 mm
05:00 14.9 °C 14.6 °C 1019.9 hPa Calm   4.8 km/h 98 % 0 mm
05:05 14.9 °C 14.6 °C 1019.9 hPa Calm   4.8 km/h 98 % 0 mm
05:10 14.9 °C 14.6 °C 1019.9 hPa Calm   1.6 km/h 98 % 0 mm
05:15 14.9 °C 14.6 °C 1019.9 hPa Calm   3.2 km/h 98 % 0 mm
05:20 15 °C 14.8 °C 1019.9 hPa Calm   4.8 km/h 99 % 0 mm
05:25 15 °C 14.8 °C 1019.9 hPa Calm   4.8 km/h 99 % 0 mm
05:30 15.1 °C 14.9 °C 1019.9 hPa Calm   4.8 km/h 99 % 0 mm
05:35 15.1 °C 14.9 °C 1019.9 hPa Calm   4.8 km/h 99 % 0 mm
05:40 15.2 °C 15 °C 1019.9 hPa Calm   3.2 km/h 99 % 0 mm
05:45 15.2 °C 15 °C 1019.9 hPa Calm   3.2 km/h 99 % 0 mm
05:50 15.2 °C 15 °C 1019.9 hPa NW 3.2 km/h 4.8 km/h 99 % 0 mm
05:55 15.3 °C 15.1 °C 1019.9 hPa Calm   4.8 km/h 99 % 0 mm
06:00 15.3 °C 15.1 °C 1019.9 hPa North 1.6 km/h 4.8 km/h 99 % 0 mm
06:05 15.3 °C 15.1 °C 1019.9 hPa Calm   4.8 km/h 99 % 0 mm
06:10 15.4 °C 15.2 °C 1019.9 hPa East 1.6 km/h 4.8 km/h 99 % 0 mm
06:15 15.4 °C 15.2 °C 1019.9 hPa NNE 1.6 km/h 4.8 km/h 99 % 0 mm
06:20 15.4 °C 15.2 °C 1019.9 hPa Calm   1.6 km/h 99 % 0 mm
06:25 15.4 °C 15.2 °C 1019.9 hPa Calm   1.6 km/h 99 % 0 mm
06:30 15.4 °C 15.2 °C 1019.9 hPa Calm   6.4 km/h 99 % 0 mm
06:35 15.5 °C 15.3 °C 1020.2 hPa Calm   6.4 km/h 99 % 0 mm
06:40 15.6 °C 15.4 °C 1020.2 hPa Calm   6.4 km/h 99 % 0 mm
06:45 15.6 °C 15.4 °C 1020.2 hPa Calm   4.8 km/h 99 % 0 mm
06:50 15.6 °C 15.4 °C 1020.2 hPa Calm   4.8 km/h 99 % 0 mm
06:55 15.6 °C 15.4 °C 1020.2 hPa Calm   4.8 km/h 99 % 0 mm
07:00 15.6 °C 15.4 °C 1020.2 hPa NNW 3.2 km/h 4.8 km/h 99 % 0.51 mm
07:05 15.6 °C 15.4 °C 1020.5 hPa Calm   4.8 km/h 99 % 0.76 mm
07:10 15.6 °C 15.4 °C 1020.5 hPa Calm   4.8 km/h 99 % 0.76 mm
07:15 15.6 °C 15.4 °C 1020.5 hPa Calm   4.8 km/h 99 % 0.76 mm
07:20 15.6 °C 15.4 °C 1020.5 hPa NNW 1.6 km/h 3.2 km/h 99 % 0.76 mm
07:25 15.6 °C 15.4 °C 1020.5 hPa Calm   3.2 km/h 99 % 1.02 mm
07:30 15.6 °C 15.4 °C 1020.5 hPa Calm   3.2 km/h 99 % 1.02 mm
07:35 15.6 °C 15.4 °C 1020.5 hPa NE 1.6 km/h 3.2 km/h 99 % 1.27 mm
07:40 15.7 °C 15.5 °C 1020.9 hPa Calm   1.6 km/h 99 % 1.27 mm
07:45 15.7 °C 15.5 °C 1020.9 hPa Calm   3.2 km/h 99 % 1.52 mm
07:50 15.7 °C 15.5 °C 1020.9 hPa North 1.6 km/h 3.2 km/h 99 % 1.52 mm
07:55 15.7 °C 15.5 °C 1020.9 hPa East 1.6 km/h 3.2 km/h 99 % 1.78 mm
08:00 15.7 °C 15.5 °C 1020.9 hPa Calm   3.2 km/h 99 % 1.27 mm
08:05 15.7 °C 15.5 °C 1021.2 hPa Calm   3.2 km/h 99 % 1.02 mm
08:10 15.7 °C 15.5 °C 1021.2 hPa NNE 1.6 km/h 3.2 km/h 99 % 1.02 mm
08:15 15.7 °C 15.5 °C 1021.2 hPa North 1.6 km/h 3.2 km/h 99 % 1.02 mm
08:20 15.8 °C 15.6 °C 1021.2 hPa Calm   4.8 km/h 99 % 1.02 mm
08:25 15.8 °C 15.6 °C 1021.2 hPa Calm   4.8 km/h 99 % 0.76 mm
08:30 15.8 °C 15.6 °C 1021.2 hPa Calm   4.8 km/h 99 % 0.76 mm
08:35 15.8 °C 15.6 °C 1021.2 hPa Calm   4.8 km/h 99 % 0.51 mm
08:40 15.8 °C 15.6 °C 1021.6 hPa Calm   3.2 km/h 99 % 0.51 mm
08:45 15.8 °C 15.6 °C 1021.6 hPa East 1.6 km/h 3.2 km/h 99 % 0.25 mm
08:50 15.9 °C 15.7 °C 1021.6 hPa Calm   4.8 km/h 99 % 0 mm
08:55 16 °C 15.8 °C 1021.6 hPa NNW 1.6 km/h 4.8 km/h 99 % 0 mm
09:00 16.1 °C 15.9 °C 1021.6 hPa Calm   4.8 km/h 99 % 0 mm
09:05 16.2 °C 16 °C 1021.6 hPa Calm   4.8 km/h 99 % 0 mm
09:10 16.2 °C 16 °C 1021.6 hPa NE 3.2 km/h 4.8 km/h 99 % 0 mm
09:15 16.3 °C 16.1 °C 1021.6 hPa NNE 1.6 km/h 4.8 km/h 99 % 0 mm
09:20 16.4 °C 16.2 °C 1021.6 hPa Calm   6.4 km/h 99 % 0 mm
09:25 16.4 °C 16.2 °C 1021.9 hPa Calm   6.4 km/h 99 % 0 mm
09:30 16.5 °C 16.3 °C 1021.9 hPa ESE 3.2 km/h 6.4 km/h 99 % 0 mm
09:35 16.5 °C 16.3 °C 1021.9 hPa ENE 3.2 km/h 6.4 km/h 99 % 0 mm
09:40 16.5 °C 16.3 °C 1021.6 hPa Calm   6.4 km/h 99 % 0 mm
09:45 16.5 °C 16.3 °C 1021.9 hPa Calm   6.4 km/h 99 % 0 mm
09:50 16.6 °C 16.4 °C 1021.9 hPa East 3.2 km/h 6.4 km/h 99 % 0 mm
09:55 16.6 °C 16.4 °C 1021.9 hPa ENE 3.2 km/h 6.4 km/h 99 % 0 mm
10:00 16.6 °C 16.4 °C 1021.9 hPa ENE 1.6 km/h 8 km/h 99 % 0 mm
10:05 16.6 °C 16.4 °C 1021.9 hPa Calm   8 km/h 99 % 0 mm
10:10 16.7 °C 16.5 °C 1021.9 hPa Calm   8 km/h 99 % 0 mm
10:15 16.7 °C 16.5 °C 1022.2 hPa Calm   6.4 km/h 99 % 0 mm
10:20 16.7 °C 16.5 °C 1022.2 hPa NNW 1.6 km/h 6.4 km/h 99 % 0 mm
10:25 16.7 °C 16.5 °C 1022.2 hPa ENE 8 km/h 8 km/h 99 % 0 mm
10:26 16.7 °C 16.5 °C 1022.2 hPa ESE 1.6 km/h 6.4 km/h 99 % 0 mm
10:31 16.6 °C 16.4 °C 1022.2 hPa NE 1.6 km/h 8 km/h 99 % 0 mm
10:36 16.6 °C 16.4 °C 1022.2 hPa Calm   8 km/h 99 % 0 mm
10:41 16.7 °C 16.5 °C 1022.2 hPa Calm   8 km/h 99 % 0.25 mm
10:46 16.7 °C 16.5 °C 1022.2 hPa North 1.6 km/h 4.8 km/h 99 % 0.25 mm
10:51 16.7 °C 16.5 °C 1021.9 hPa Calm   9.7 km/h 99 % 0.25 mm
10:56 16.7 °C 16.5 °C 1021.9 hPa East 8 km/h 9.7 km/h 99 % 0.25 mm
11:01 16.7 °C 16.5 °C 1021.9 hPa Calm   9.7 km/h 99 % 0.25 mm
11:06 16.7 °C 16.5 °C 1021.9 hPa Calm   9.7 km/h 99 % 0.25 mm
11:11 16.8 °C 16.6 °C 1021.9 hPa Calm   9.7 km/h 99 % 0.25 mm
11:16 16.8 °C 16.6 °C 1021.9 hPa NE 1.6 km/h 6.4 km/h 99 % 0.25 mm
11:21 16.9 °C 16.7 °C 1021.9 hPa Calm   6.4 km/h 99 % 0.25 mm
11:26 17 °C 16.8 °C 1021.9 hPa Calm   6.4 km/h 99 % 0.25 mm
11:31 17.1 °C 16.9 °C 1021.6 hPa SE 1.6 km/h 6.4 km/h 99 % 0.25 mm
11:36 17.1 °C 16.9 °C 1021.6 hPa Calm   6.4 km/h 99 % 0.25 mm
11:41 17.2 °C 17 °C 1021.6 hPa East 1.6 km/h 6.4 km/h 99 % 0 mm
11:46 17.2 °C 17 °C 1021.6 hPa Calm   6.4 km/h 99 % 0 mm
11:51 17.2 °C 17 °C 1021.6 hPa Calm   4.8 km/h 99 % 0 mm
11:56 17.2 °C 17 °C 1021.6 hPa Calm   4.8 km/h 99 % 0.25 mm
12:01 17.2 °C 17 °C 1021.6 hPa Calm   4.8 km/h 99 % 0.25 mm
12:06 17.2 °C 17 °C 1021.6 hPa Calm   3.2 km/h 99 % 0.25 mm
12:11 17.2 °C 17 °C 1021.2 hPa Calm   3.2 km/h 99 % 0.51 mm
12:16 17.2 °C 17 °C 1021.2 hPa Calm   3.2 km/h 99 % 0.76 mm
12:21 17.3 °C 17.1 °C 1020.9 hPa Calm   3.2 km/h 99 % 1.02 mm
12:26 17.4 °C 17.2 °C 1020.5 hPa East 1.6 km/h 6.4 km/h 99 % 1.52 mm
12:31 17.5 °C 17.3 °C 1020.5 hPa ENE 1.6 km/h 6.4 km/h 99 % 1.78 mm
12:36 17.5 °C 17.3 °C 1020.5 hPa Calm   6.4 km/h 99 % 2.03 mm
12:41 17.6 °C 17.4 °C 1020.5 hPa Calm   6.4 km/h 99 % 2.03 mm
12:46 17.6 °C 17.4 °C 1020.5 hPa East 3.2 km/h 6.4 km/h 99 % 2.29 mm
12:51 17.6 °C 17.4 °C 1020.5 hPa NNW 1.6 km/h 4.8 km/h 99 % 2.29 mm
12:56 17.6 °C 17.4 °C 1020.2 hPa ESE 1.6 km/h 4.8 km/h 99 % 2.03 mm
13:01 17.6 °C 17.4 °C 1020.5 hPa Calm   4.8 km/h 99 % 2.03 mm
13:06 17.6 °C 17.4 °C 1020.5 hPa East 1.6 km/h 4.8 km/h 99 % 2.29 mm
13:11 17.6 °C 17.4 °C 1020.2 hPa ESE 1.6 km/h 4.8 km/h 99 % 2.29 mm
13:16 17.6 °C 17.4 °C 1020.2 hPa Calm   3.2 km/h 99 % 2.54 mm
13:21 17.6 °C 17.4 °C 1020.2 hPa ESE 1.6 km/h 3.2 km/h 99 % 2.54 mm
13:26 17.6 °C 17.4 °C 1019.9 hPa Calm   3.2 km/h 99 % 2.29 mm
13:31 17.7 °C 17.5 °C 1020.2 hPa Calm   3.2 km/h 99 % 2.29 mm
13:36 17.7 °C 17.5 °C 1020.2 hPa Calm   1.6 km/h 99 % 2.29 mm
13:41 17.8 °C 17.6 °C 1020.2 hPa ESE 1.6 km/h 1.6 km/h 99 % 2.54 mm
13:46 17.8 °C 17.6 °C 1019.9 hPa ESE 1.6 km/h 1.6 km/h 99 % 2.54 mm
13:51 17.8 °C 17.6 °C 1019.9 hPa East 1.6 km/h 3.2 km/h 99 % 2.54 mm
13:56 17.8 °C 17.6 °C 1019.9 hPa ESE 1.6 km/h 3.2 km/h 99 % 2.54 mm
14:01 17.9 °C 17.7 °C 1019.5 hPa ENE 3.2 km/h 4.8 km/h 99 % 2.79 mm
14:06 18.1 °C 17.9 °C 1019.5 hPa Calm   4.8 km/h 99 % 2.79 mm
14:11 18.3 °C 18.3 °C 1019.5 hPa Calm   4.8 km/h 100 % 2.79 mm
14:16 18.4 °C 18.2 °C 1019.5 hPa Calm   4.8 km/h 99 % 2.29 mm
14:21 18.5 °C 18.3 °C 1019.5 hPa Calm   3.2 km/h 99 % 2.03 mm
14:26 18.6 °C 18.4 °C 1019.5 hPa Calm   3.2 km/h 99 % 1.78 mm
14:31 18.6 °C 18.4 °C 1019.5 hPa North 1.6 km/h 3.2 km/h 99 % 1.52 mm
14:36 18.4 °C 18.2 °C 1019.5 hPa Calm   3.2 km/h 99 % 1.27 mm
14:41 18.3 °C 18 °C 1019.5 hPa Calm   4.8 km/h 98 % 1.02 mm
14:46 18.2 °C 18 °C 1019.5 hPa East 1.6 km/h 4.8 km/h 99 % 0.76 mm
14:51 18.2 °C 18 °C 1019.5 hPa North 1.6 km/h 4.8 km/h 99 % 1.02 mm
14:56 18.2 °C 18 °C 1019.5 hPa Calm   3.2 km/h 99 % 1.02 mm
15:02 18.2 °C 18 °C 1019.5 hPa Calm   4.8 km/h 99 % 0.76 mm
15:07 18.1 °C 17.9 °C 1019.5 hPa ENE 1.6 km/h 4.8 km/h 99 % 0.51 mm
15:12 18.1 °C 17.9 °C 1019.5 hPa ENE 3.2 km/h 4.8 km/h 99 % 0.51 mm
15:17 18.1 °C 17.9 °C 1019.5 hPa Calm   4.8 km/h 99 % 0.76 mm
15:22 18.2 °C 18 °C 1019.5 hPa North 3.2 km/h 4.8 km/h 99 % 0.76 mm
15:27 18.2 °C 18 °C 1019.5 hPa Calm   4.8 km/h 99 % 0.76 mm
15:32 18.1 °C 17.9 °C 1019.5 hPa Calm   4.8 km/h 99 % 0.76 mm
15:37 18.1 °C 17.9 °C 1019.5 hPa Calm   3.2 km/h 99 % 0.76 mm
15:42 18.1 °C 17.9 °C 1019.2 hPa NNE 3.2 km/h 3.2 km/h 99 % 1.02 mm
15:47 18.2 °C 18 °C 1019.2 hPa Calm   3.2 km/h 99 % 1.02 mm
15:52 18.3 °C 18.1 °C 1019.5 hPa Calm   4.8 km/h 99 % 1.02 mm
15:57 18.3 °C 18.1 °C 1019.5 hPa Calm   4.8 km/h 99 % 1.02 mm
16:02 18.3 °C 18.1 °C 1019.2 hPa Calm   4.8 km/h 99 % 1.02 mm
16:07 18.2 °C 17.9 °C 1019.2 hPa Calm   6.4 km/h 98 % 1.02 mm
16:12 18.2 °C 17.9 °C 1019.2 hPa Calm   6.4 km/h 98 % 0.76 mm
16:17 18.2 °C 18 °C 1019.5 hPa NE 1.6 km/h 6.4 km/h 99 % 0.51 mm
16:22 18.2 °C 18 °C 1019.5 hPa Calm   6.4 km/h 99 % 0.51 mm
16:27 18.2 °C 17.9 °C 1019.2 hPa NNE 1.6 km/h 8 km/h 98 % 0.51 mm
16:32 18.1 °C 17.9 °C 1019.2 hPa NW 1.6 km/h 8 km/h 99 % 0.51 mm
16:37 18.1 °C 17.9 °C 1019.5 hPa NNE 3.2 km/h 8 km/h 99 % 0.51 mm
16:42 18.1 °C 17.9 °C 1019.5 hPa NE 1.6 km/h 4.8 km/h 99 % 0.25 mm
16:47 18.1 °C 17.8 °C 1019.5 hPa Calm   6.4 km/h 98 % 0.25 mm
16:52 18.1 °C 17.8 °C 1019.5 hPa Calm   6.4 km/h 98 % 0 mm
16:57 18.1 °C 17.8 °C 1019.5 hPa Calm   6.4 km/h 98 % 0 mm
17:02 18.1 °C 17.8 °C 1019.5 hPa Calm   6.4 km/h 98 % 0 mm
17:07 18 °C 17.7 °C 1019.5 hPa Calm   3.2 km/h 98 % 0 mm
17:12 18 °C 17.7 °C 1019.9 hPa Calm   1.6 km/h 98 % 0 mm
17:17 17.9 °C 17.6 °C 1019.9 hPa Calm   3.2 km/h 98 % 0 mm
17:22 17.9 °C 17.6 °C 1019.9 hPa NE 1.6 km/h 3.2 km/h 98 % 0 mm
17:27 17.9 °C 17.6 °C 1019.9 hPa Calm   3.2 km/h 98 % 0 mm
17:32 17.9 °C 17.6 °C 1019.9 hPa Calm   3.2 km/h 98 % 0 mm
17:37 17.8 °C 17.5 °C 1019.9 hPa Calm   3.2 km/h 98 % 0 mm
17:42 17.8 °C 17.5 °C 1019.9 hPa Calm   3.2 km/h 98 % 0 mm
17:47 17.8 °C 17.6 °C 1019.9 hPa Calm   3.2 km/h 99 % 0 mm
17:52 17.8 °C 17.5 °C 1019.9 hPa Calm   3.2 km/h 98 % 0 mm
17:57 17.8 °C 17.6 °C 1019.9 hPa NE 1.6 km/h 1.6 km/h 99 % 0 mm
18:02 17.7 °C 17.4 °C 1019.9 hPa Calm   3.2 km/h 98 % 0 mm
18:07 17.7 °C 17.5 °C 1020.2 hPa Calm   3.2 km/h 99 % 0.25 mm
18:12 17.7 °C 17.5 °C 1020.2 hPa Calm   3.2 km/h 99 % 0.25 mm
18:17 17.7 °C 17.5 °C 1019.9 hPa Calm   1.6 km/h 99 % 0.51 mm
18:22 17.7 °C 17.5 °C 1020.2 hPa Calm   3.2 km/h 99 % 0.51 mm
18:27 17.7 °C 17.5 °C 1020.2 hPa Calm   3.2 km/h 99 % 0.51 mm
18:32 17.6 °C 17.4 °C 1020.2 hPa Calm   3.2 km/h 99 % 0.51 mm
18:37 17.6 °C 17.4 °C 1020.2 hPa Calm   1.6 km/h 99 % 0.51 mm
18:42 17.6 °C 17.4 °C 1020.5 hPa Calm   1.6 km/h 99 % 0.51 mm
18:47 17.6 °C 17.4 °C 1020.5 hPa Calm   1.6 km/h 99 % 0.51 mm
18:52 17.6 °C 17.4 °C 1020.5 hPa Calm   1.6 km/h 99 % 0.51 mm
18:57 17.6 °C 17.4 °C 1020.5 hPa Calm   1.6 km/h 99 % 0.51 mm
19:02 17.6 °C 17.4 °C 1020.5 hPa Calm   1.6 km/h 99 % 0.51 mm
19:07 17.6 °C 17.4 °C 1020.5 hPa Calm   1.6 km/h 99 % 0.25 mm
19:12 17.6 °C 17.4 °C 1020.5 hPa Calm   1.6 km/h 99 % 0.25 mm
19:17 17.6 °C 17.4 °C 1020.5 hPa Calm   1.6 km/h 99 % 0 mm
19:22 17.6 °C 17.4 °C 1020.9 hPa Calm   1.6 km/h 99 % 0 mm
19:27 17.5 °C 17.3 °C 1021.2 hPa Calm   1.6 km/h 99 % 0 mm
19:32 17.5 °C 17.3 °C 1021.2 hPa Calm   1.6 km/h 99 % 0 mm
19:37 17.5 °C 17.3 °C 1020.9 hPa Calm   1.6 km/h 99 % 0 mm
19:42 17.5 °C 17.3 °C 1021.2 hPa NW 1.6 km/h 1.6 km/h 99 % 0 mm
19:47 17.6 °C 17.4 °C 1021.2 hPa NW 1.6 km/h 1.6 km/h 99 % 0 mm
19:52 17.5 °C 17.3 °C 1020.9 hPa Calm   1.6 km/h 99 % 0 mm
19:57 17.5 °C 17.3 °C 1021.2 hPa Calm   1.6 km/h 99 % 0 mm
20:02 17.5 °C 17.3 °C 1021.2 hPa Calm   1.6 km/h 99 % 0 mm
20:07 17.4 °C 17.2 °C 1021.2 hPa NW 1.6 km/h 1.6 km/h 99 % 0 mm
20:12 17.4 °C 17.2 °C 1021.2 hPa NW 1.6 km/h 1.6 km/h 99 % 0 mm
20:17 17.4 °C 17.2 °C 1021.2 hPa Calm   1.6 km/h 99 % 0 mm
20:22 17.3 °C 17.1 °C 1021.2 hPa East 1.6 km/h 1.6 km/h 99 % 0 mm
20:27 17.2 °C 17 °C 1021.2 hPa Calm   1.6 km/h 99 % 0 mm
20:32 17.1 °C 16.9 °C 1021.2 hPa Calm   1.6 km/h 99 % 0 mm
20:37 17 °C 16.8 °C 1021.2 hPa Calm   1.6 km/h 99 % 0 mm
20:42 17 °C 16.8 °C 1021.2 hPa Calm   1.6 km/h 99 % 0 mm
20:47 17 °C 16.8 °C 1021.2 hPa Calm   1.6 km/h 99 % 0 mm
20:52 17 °C 16.8 °C 1021.2 hPa Calm   1.6 km/h 99 % 0 mm
20:57 17 °C 16.8 °C 1021.2 hPa Calm   1.6 km/h 99 % 0 mm
21:02 17.1 °C 16.9 °C 1021.2 hPa NNE 1.6 km/h 1.6 km/h 99 % 0 mm
21:07 17.1 °C 16.9 °C 1021.2 hPa Calm   1.6 km/h 99 % 0 mm
21:12 17.1 °C 16.9 °C 1021.2 hPa Calm   1.6 km/h 99 % 0 mm
21:17 17 °C 16.8 °C 1021.2 hPa Calm   1.6 km/h 99 % 0 mm
21:22 16.9 °C 16.7 °C 1021.2 hPa Calm   1.6 km/h 99 % 0 mm
21:27 17 °C 16.8 °C 1021.2 hPa Calm   1.6 km/h 99 % 0 mm
21:32 17 °C 16.8 °C 1021.2 hPa Calm   1.6 km/h 99 % 0 mm
21:37 17 °C 16.8 °C 1021.2 hPa NNW 1.6 km/h 1.6 km/h 99 % 0 mm
21:42 17.1 °C 16.9 °C 1021.2 hPa NNW 1.6 km/h 1.6 km/h 99 % 0 mm
21:47 17.1 °C 16.9 °C 1021.2 hPa Calm   3.2 km/h 99 % 0 mm
21:52 17.1 °C 16.9 °C 1021.2 hPa Calm   3.2 km/h 99 % 0 mm
21:57 17.1 °C 16.9 °C 1021.2 hPa NNW 1.6 km/h 3.2 km/h 99 % 0 mm
22:02 17.2 °C 17 °C 1021.2 hPa Calm   3.2 km/h 99 % 0 mm
22:07 17.2 °C 17 °C 1021.2 hPa Calm   3.2 km/h 99 % 0 mm
22:12 17.2 °C 17 °C 1021.6 hPa NNW 1.6 km/h 3.2 km/h 99 % 0 mm
22:17 17.2 °C 17 °C 1021.6 hPa Calm   3.2 km/h 99 % 0 mm
22:22 17.2 °C 17 °C 1021.6 hPa Calm   1.6 km/h 99 % 0 mm
22:27 17.2 °C 17 °C 1021.6 hPa NW 1.6 km/h 1.6 km/h 99 % 0 mm
22:32 17.2 °C 17 °C 1021.6 hPa Calm   3.2 km/h 99 % 0 mm
22:37 17.2 °C 17 °C 1021.6 hPa NNW 1.6 km/h 3.2 km/h 99 % 0 mm
22:42 17.2 °C 17 °C 1021.6 hPa Calm   3.2 km/h 99 % 0 mm
22:47 17.2 °C 17 °C 1021.6 hPa NW 1.6 km/h 1.6 km/h 99 % 0 mm
22:52 17.2 °C 17 °C 1021.6 hPa Calm   3.2 km/h 99 % 0 mm
22:57 17.2 °C 17 °C 1021.6 hPa North 1.6 km/h 3.2 km/h 99 % 0 mm
23:02 17.2 °C 17 °C 1021.6 hPa WNW 1.6 km/h 3.2 km/h 99 % 0 mm
23:07 17.2 °C 17 °C 1021.6 hPa NW 1.6 km/h 4.8 km/h 99 % 0 mm
23:12 17.2 °C 17 °C 1021.6 hPa Calm   4.8 km/h 99 % 0 mm
23:18 17.1 °C 16.9 °C 1021.6 hPa NNW 3.2 km/h 4.8 km/h 99 % 0 mm
23:23 17.1 °C 16.9 °C 1021.6 hPa Calm   3.2 km/h 99 % 0 mm
23:28 17.1 °C 16.9 °C 1021.6 hPa NW 1.6 km/h 4.8 km/h 99 % 0 mm
23:33 17.1 °C 16.9 °C 1021.6 hPa NW 1.6 km/h 4.8 km/h 99 % 0 mm
23:38 17 °C 16.8 °C 1021.6 hPa Calm   4.8 km/h 99 % 0 mm
23:43 17 °C 16.8 °C 1021.6 hPa NW 1.6 km/h 4.8 km/h 99 % 0 mm
23:48 17 °C 16.8 °C 1021.6 hPa NNW 3.2 km/h 4.8 km/h 99 % 0.25 mm
23:53 16.9 °C 16.9 °C 1021.6 hPa Calm   4.8 km/h 100 % 0.25 mm
23:58 16.9 °C 16.9 °C 1021.6 hPa Calm   4.8 km/h 100 % 0.25 mm
Spring, Texas: Villages of Bridgestone
Compliments of Weather Underground - 2.75 mb

Script developed by  Jim McMurry - jmcmurry@mwt.net Adapted for the template by  Wim van der Kuil - Leuven-Template.eu

You find our weather info also at:

UK Metoffice

WeatherCloud

Weather Underground

Mid-South Weather Network

AWEKAS

Citizen Weather Observer Program (CWOP)

HAMweather, WeatherForYou, PWS Weather

Equipment we use:

Weather-station
Davis Vantage Vue

Weather-program
Meteohub

Weather-server
Debian 7.9 x86 (Guest)

Provider
DreamHost

Davis Vantage Vue

Meteohub

Debian 7.9 x86 (Guest)

DreamHost